Погода в Круглолесском

Россия / Ставропольский край     44°39′29″N   42°49′00″E
темп.,
°C
ветер,
м/с
пор.,
м/с
влажн.,
%
обл.,
%
осадки,
мм/ч
давл.,
гПа
погр.,
м
23 октября, сб
сб2300:00+11зсз11560 0.0 102010
03:00+10ю00570 0.0 102110
06:00+10ю22600 0.0 102110
09:00+15ююв22460 0.0 1021147
12:00+19юв22292 0.0 1020649
15:00+20вюв22262 0.0 1018979
18:00+15юв22405 0.0 101911
21:00+13юз114645 0.0 101910
24 октября, вс
вс2400:00+11зсз225054 0.0 102012
03:00+10з2259100 0.0 102012
06:00+9зюз1170100 0.0 102011
09:00+12зюз126386 0.0 1020188
12:00+16з1152100 0.0 1018588
15:00+17в1148100 0.0 10161074
18:00+13вюв2261100 0.0 101620
21:00+12в2271100 0.0 101631
25 октября, пн
пн2500:00+11с2382100 0.0 101694
03:00+7с6784100 0.0 1019426
06:00+6ссз5689100 0.2 1022582
09:00+5сз5791100 3.4 1025617
12:00+5сз4590100 1.0 1027775
15:00+6сз3572100 1.1 10271079
18:00+6зюз3574100 0.0 1029333
21:00+6з2378100 0.1 1030158
26 октября, вт
вт2600:00+6ссв127177 0.0 103067
03:00+4всв227592 0.0 103159
06:00+4всв237390 0.0 1032157
09:00+5в346122 0.0 1032502
12:00+8вюв455319 0.0 10311087
15:00+9вюв555241 0.0 10291231
18:00+7вюв476166 0.0 1030439
21:00+5вюв497127 0.0 1030377
27 октября, ср
ср2700:00+4в411685 0.0 1030315
03:00+3вюв4117061 0.0 1029351
06:00+2вюв412815 0.0 1029347
09:00+5вюв813758 0.0 1029592
12:00+9юв810604 0.0 1026853
15:00+9юв79591 0.0 1025926
18:00+6юв6117413 0.0 1025554
21:00+6юв511780 0.0 1024370